This demonstration page uses our WeatherBlox Daily Observations layout. Learn more.

Left ArrowRight Arrow

Hourly Observations for August 12, 2021

Temp ( °F °C ) Dew Point ( °F °C ) Humidity (%) Winds ( mph kmh ) Pressure ( in mb ) Visibility ( mi km ) Precip ( " mm )
12:54 am 00:54 Mostly Cloudy 77 25 66 18.9 69 69 Calm 29.85 1011 10 16 0.00 0.00
1:54 am 01:54 Partly Cloudy 76 24.4 67 19.4 74 74 ENE 3 6 29.85 1011 10 16 0.00 0.00
2:54 am 02:54 Clear 75 23.9 67 19.4 76 76 Calm 29.83 1010 10 16 0.00 0.00
3:54 am 03:54 Clear 76 24.4 67 19.4 74 74 Calm 29.82 1010 10 16 0.00 0.00
4:54 am 04:54 Clear 76 24.4 69 20.6 79 79 SE 7 11 29.81 1009 10 16 0.00 0.00
5:54 am 05:54 Clear 74 23.3 69 20.6 85 85 ESE 5 7 29.80 1009 10 16 0.00 0.00
6:54 am 06:54 Sunny 75 23.9 70 21.1 84 84 Calm 29.82 1010 10 16 0.00 0.00
7:54 am 07:54 Sunny 76 24.4 70 21.1 82 82 SW 3 6 29.83 1010 9 14 0.00 0.00
8:54 am 08:54 Sunny 78 25.6 71 21.7 79 79 Calm 29.85 1011 10 16 0.00 0.00
9:54 am 09:54 Sunny 82 27.8 72 22.2 72 72 Calm 29.87 1012 10 16 0.00 0.00
10:54 am 10:54 Sunny 87 30.6 74 23.3 65 65 NNW 9 15 29.89 1012 10 16 0.00 0.00
11:54 am 11:54 Sunny 89 31.7 74 23.3 61 61 N 15 24 29.90 1012 10 16 0.00 0.00
12:54 pm 12:54 Sunny 89 31.7 74 23.3 61 61 N 15 24 29.91 1013 10 16 0.00 0.00
1:54 pm 13:54 Sunny 86 30 73 22.8 65 65 NNE 13 20 29.92 1013 10 16 0.00 0.00
2:54 pm 14:54 Sunny 90 32.2 71 21.7 54 54 N 17 28 29.93 1013 10 16 0.00 0.00
3:54 pm 15:54 Partly Cloudy 90 32.2 69 20.6 50 50 NNE 16 26 29.94 1014 10 16 0.00 0.00
4:54 pm 16:54 Mostly Sunny 89 31.7 68 20 50 50 NNE 18 30 29.93 1014 10 16 0.00 0.00
5:54 pm 17:54 Mostly Sunny 86 30 67 19.4 53 53 NNE 22 35 29.93 1014 10 16 0.00 0.00
6:54 pm 18:54 Mostly Sunny 83 28.3 60 15.6 46 46 NNE 18 30 29.97 1015 10 16 0.00 0.00
7:54 pm 19:54 Sunny 79 26.1 59 15 50 50 NNE 15 24 29.98 1015 10 16 0.00 0.00
8:54 pm 20:54 Clear 77 25 59 15 54 54 NNE 14 22 30.01 1016 10 16 0.00 0.00
9:54 pm 21:54 Clear 76 24.4 59 15 56 56 NNE 18 30 30.00 1016 10 16 0.00 0.00
10:54 pm 22:54 Clear 73 22.8 59 15 62 62 NNE 8 13 30.03 1017 10 16 0.00 0.00
11:54 pm 23:54 Clear 72 22.2 58 14.4 61 61 N 7 11 30.02 1017 10 16 0.00 0.00

Powered by AerisWeather